{"data":{"norad_id":66671,"epoch":"2026-05-25T03:56:32.070048Z","epoch_age_seconds":56938,"freshness":"FRESH","line1":"1 66671U 25276F   26145.16426007  .00011035  00000+0  49950-3 0  9991","line2":"2 66671  97.4213 219.2598 0007237  86.3759 273.8304 15.21038368 26931","mean_motion":15.21038368,"eccentricity":0.0007237,"inclination_deg":97.4213,"raan_deg":219.2598,"arg_perigee_deg":86.3759,"mean_anomaly_deg":273.8304,"bstar":0.0004995,"rev_number":2693,"period_min":94.67216805934,"perigee_km":497.72759794935,"apogee_km":507.68693193843,"semimajor_km":6880.8442649439,"source":"CELESTRAK","updated_at":"2026-05-25T13:38:06.385279Z"}}